Date,TemperatureHighF,TemperatureAvgF,TemperatureLowF,DewpointHighF,DewpointAvgF,DewpointLowF,HumidityHigh,HumidityAvg,HumidityLow,PressureMaxIn,PressureMinIn,WindSpeedMaxMPH,WindSpeedAvgMPH,GustSpeedMaxMPH,PrecipitationSumIn
2013-1-1,18,10,4,3,-2,-13,89,61,32,30.22,30.11,6,0,6,0.00
2013-1-2,23,17,10,14,7,-4,84,65,35,30.13,30.01,11,2,11,0.00
2013-1-3,26,22,20,18,16,13,89,77,61,30.19,30.02,10,4,12,0.00
2013-1-4,30,24,12,20,13,5,92,65,38,30.17,30.05,11,2,11,0.00
2013-1-5,35,25,9,33,21,8,100,85,49,30.20,29.87,12,3,12,0.00
2013-1-6,34,22,10,26,16,9,100,78,55,30.27,29.88,15,3,15,0.00
2013-1-7,35,25,9,24,16,8,100,71,42,30.25,29.99,16,5,16,0.00
2013-1-8,38,30,16,28,23,16,100,76,45,30.08,29.90,16,4,16,0.00
2013-1-9,41,33,18,29,21,11,100,65,31,30.45,29.90,15,4,19,0.00
2013-1-10,39,30,16,35,24,15,100,83,43,30.47,29.88,10,2,12,0.00
2013-1-11,48,39,34,46,39,34,100,100,93,29.87,29.60,14,4,15,0.00
2013-1-12,47,33,21,43,23,10,92,66,39,30.00,29.61,16,6,16,0.00
2013-1-13,21,16,11,12,5,0,68,61,47,30.19,29.90,14,6,14,0.00
2013-1-14,24,15,6,14,5,-5,97,68,32,30.43,30.18,9,2,11,0.00
2013-1-15,30,19,9,14,9,0,100,69,31,30.40,30.04,12,3,12,0.00
2013-1-16,33,26,16,27,16,6,81,66,43,30.04,29.78,16,4,17,0.00
2013-1-17,27,19,10,19,3,-12,100,52,21,30.38,30.04,13,3,15,0.00
2013-1-18,41,29,12,29,18,7,87,64,45,30.39,29.83,21,6,21,0.00
2013-1-19,45,36,14,30,21,-6,81,57,18,29.95,29.66,27,6,27,0.00
2013-1-20,16,10,6,2,-5,-14,71,51,30,30.31,29.95,20,6,24,0.00
2013-1-21,10,2,-4,1,-10,-19,75,56,35,30.28,30.11,15,6,18,0.00
2013-1-22,9,0,-8,-4,-11,-20,90,61,35,30.38,30.27,13,3,14,0.00
2013-1-23,18,11,3,14,1,-8,89,64,52,30.44,30.06,19,5,25,0.00
2013-1-24,16,6,-2,5,-6,-15,76,60,32,30.67,30.31,13,4,14,0.00
2013-1-25,26,18,12,13,8,1,87,64,38,30.33,29.92,14,6,15,0.00
2013-1-26,29,17,4,9,2,-17,93,56,19,30.39,30.21,10,3,11,0.00
2013-1-27,32,27,21,32,20,8,100,77,54,30.31,29.88,14,6,15,0.00
2013-1-28,41,35,32,36,32,23,100,89,57,29.95,29.78,11,1,11,0.20
2013-1-29,55,42,35,55,42,35,100,100,90,29.82,29.52,11,4,12,2.48
2013-1-30,35,27,15,35,26,10,100,95,77,29.66,29.36,16,4,20,0.16
2013-1-31,16,9,0,10,0,-7,79,67,46,30.15,29.65,15,6,18,0.00
2013-2-1,5,0,-8,2,-9,-24,86,67,28,30.34,30.10,11,4,11,0.00
2013-2-2,11,6,1,3,0,-8,99,75,46,30.12,30.00,10,2,10,0.00
2013-2-3,20,13,6,12,5,-4,95,72,39,30.03,29.93,16,2,17,0.00
2013-2-4,16,12,6,13,5,-6,93,74,40,29.99,29.92,10,2,10,0.00
2013-2-5,28,19,4,20,12,-2,100,74,54,30.10,29.79,13,4,15,0.00
2013-2-6,32,19,-2,29,12,-4,100,78,43,30.22,30.03,10,2,11,0.00
2013-2-7,34,30,21,33,29,20,100,96,86,30.10,29.92,11,4,13,0.04
2013-2-8,30,18,4,20,12,1,100,80,49,30.39,30.09,14,3,16,0.00
2013-2-9,28,22,2,24,19,-1,100,89,66,30.40,30.05,15,5,16,0.00
2013-2-10,43,33,20,43,32,20,100,98,74,30.06,29.42,17,6,19,0.51
2013-2-11,38,30,24,31,22,15,88,72,60,29.99,29.42,22,8,22,0.04
2013-2-12,30,24,20,24,14,4,99,68,41,30.08,29.88,12,3,12,0.00
2013-2-13,40,30,16,34,21,8,100,74,30,29.89,29.70,8,2,9,0.00
2013-2-14,35,32,26,34,23,13,100,71,43,30.00,29.59,20,6,20,0.00
2013-2-15,27,19,11,14,3,-10,69,51,24,30.21,30.00,15,3,15,0.00
2013-2-16,18,10,1,6,-2,-16,100,62,25,30.21,30.13,13,1,13,0.00
2013-2-17,26,14,-2,15,3,-12,100,64,28,30.22,29.90,13,4,13,0.00
2013-2-18,45,33,22,36,24,15,100,70,44,29.91,29.50,14,5,16,0.16
2013-2-19,21,12,7,16,3,-5,88,66,50,30.19,29.60,16,4,17,0.00
2013-2-20,24,13,4,8,0,-6,77,57,32,30.37,30.19,12,4,14,0.00
2013-2-21,25,17,9,24,12,4,100,81,64,30.43,30.03,15,4,17,0.00
2013-2-22,33,26,23,25,22,14,98,83,55,30.04,29.81,15,3,16,0.00
2013-2-23,34,25,20,20,15,2,85,66,32,29.94,29.86,11,3,11,0.00
2013-2-24,46,25,14,22,13,-12,100,69,11,30.13,29.93,6,0,8,0.00
2013-2-25,40,27,14,31,18,10,100,72,34,30.16,30.01,7,1,8,0.00
2013-2-26,33,30,26,29,24,18,100,81,54,30.02,29.67,21,8,21,0.00
2013-2-27,33,30,28,31,27,22,100,89,72,29.83,29.66,15,7,17,0.12
2013-2-28,35,30,23,31,22,14,100,73,48,30.13,29.83,14,6,14,0.04
2013-3-1,26,21,7,19,14,6,100,76,46,30.25,30.12,12,3,14,0.00
2013-3-2,27,15,4,15,5,-6,100,73,28,30.27,30.16,10,2,10,0.00
2013-3-3,31,14,-3,12,1,-19,100,65,13,30.18,30.07,5,1,6,0.00
2013-3-4,34,23,8,22,12,4,99,64,34,30.12,30.00,11,3,12,0.00
2013-3-5,29,27,23,27,23,21,98,86,76,30.10,29.89,15,5,15,0.00
2013-3-6,33,27,23,22,19,15,88,70,52,30.32,30.10,14,5,16,0.00
2013-3-7,40,22,6,31,9,-18,100,67,10,30.42,30.30,6,1,7,0.00
2013-3-8,37,25,10,26,17,10,100,75,38,30.46,30.25,13,3,13,0.00
2013-3-9,39,34,28,37,27,19,100,76,49,30.25,29.82,17,6,17,0.63
2013-3-10,40,37,34,40,37,34,100,100,96,29.85,29.66,13,4,10,1.34
2013-3-11,35,33,30,34,31,22,100,92,71,29.81,29.59,13,3,0,0.00
2013-3-12,36,28,24,26,17,2,95,65,30,30.01,29.80,13,4,0,0.00
2013-3-13,33,24,18,17,3,-18,79,47,12,30.31,30.00,16,5,0,0.00
2013-3-14,38,25,13,28,16,5,100,72,40,30.30,30.04,10,2,0,0.00
2013-3-15,36,30,25,32,27,21,100,88,62,30.04,29.84,12,2,0,0.08
2013-3-16,31,25,19,24,16,8,97,69,44,30.14,29.84,12,3,0,0.00
2013-3-17,33,22,15,16,8,-2,81,54,33,30.27,29.99,11,2,0,0.00
2013-3-18,36,25,16,29,19,7,100,80,57,29.99,29.60,15,2,0,0.16
2013-3-19,30,19,11,8,2,-7,78,50,22,30.04,29.75,17,5,0,0.00
2013-3-20,23,14,7,4,-3,-14,60,46,23,30.09,30.00,19,5,0,0.00
2013-3-21,32,18,6,13,0,-15,88,51,15,30.07,29.98,12,2,0,0.00
2013-3-22,40,22,8,17,4,-19,98,53,12,30.08,30.00,6,1,0,0.00
2013-3-23,49,28,16,21,9,-21,100,54,8,30.15,30.05,8,1,0,0.00
2013-3-24,31,29,26,26,21,16,90,73,58,30.07,29.82,14,6,0,0.00
2013-3-25,34,30,23,20,16,11,73,58,41,30.10,29.86,14,6,0,0.00
2013-3-26,41,34,29,20,16,8,67,50,30,30.25,30.08,11,4,0,0.00
2013-3-27,44,35,25,24,14,-2,79,46,18,30.32,30.24,11,1,0,0.00
2013-3-28,53,34,21,26,12,-16,91,50,8,30.35,30.26,7,1,0,0.00
2013-3-29,50,36,22,29,14,-8,100,50,10,30.33,30.20,6,1,0,0.00
2013-3-30,51,42,33,41,26,17,98,56,34,30.21,29.84,17,5,0,0.00
2013-3-31,48,38,31,42,28,10,100,70,39,29.91,29.76,16,5,0,0.00
2013-4-1,36,29,24,13,6,-6,54,38,18,30.18,29.91,15,7,0,0.00
2013-4-2,40,30,22,15,5,-16,69,39,11,30.31,30.17,15,4,0,0.00
2013-4-3,45,34,21,20,6,-19,85,37,8,30.45,30.24,10,2,0,0.00
2013-4-4,59,42,29,24,16,1,58,37,13,30.25,29.93,14,6,0,0.00
2013-4-5,48,38,28,25,15,-3,85,42,14,30.25,30.03,11,3,0,0.00
2013-4-6,39,35,33,20,15,11,51,45,39,30.11,29.91,15,7,0,0.00
2013-4-8,55,46,39,44,40,34,100,83,53,29.99,29.63,11,5,0,1.10
2013-4-9,41,38,36,40,38,34,100,99,89,30.01,29.88,15,6,0,2.36
2013-4-10,37,35,31,36,34,30,100,97,83,30.07,29.90,19,6,0,0.00
2013-4-11,39,37,34,39,36,33,100,99,89,29.91,29.60,22,7,0,0.00
2013-4-12,44,37,33,40,32,24,100,84,61,29.83,29.53,11,2,0,0.00
2013-4-13,40,34,29,28,21,13,83,61,39,29.97,29.80,13,3,0,0.00
2013-4-14,52,38,29,41,29,20,96,72,45,29.98,29.57,15,5,0,0.00
2013-4-15,62,47,39,51,36,13,100,73,16,29.95,29.58,18,4,0,0.00
2013-4-16,54,42,32,34,25,13,92,56,24,30.29,29.94,13,3,0,0.00
2013-4-17,42,40,36,42,35,27,100,85,62,30.30,29.88,16,4,0,0.00
2013-4-18,59,45,37,59,43,29,100,93,70,29.90,29.34,19,5,0,0.00
2013-4-19,40,34,30,29,22,14,76,59,43,29.91,29.38,19,8,0,0.00
2013-4-20,48,35,24,22,6,-17,86,36,8,30.36,29.90,15,3,0,0.00
2013-4-21,53,41,31,28,20,9,74,46,22,30.47,30.22,18,8,0,0.00
2013-4-22,68,53,42,30,25,12,57,36,14,30.25,29.97,15,7,0,0.00
2013-4-23,56,43,37,45,29,21,83,60,35,29.99,29.89,16,6,0,0.00
2013-4-24,55,42,32,24,12,-13,69,36,8,30.03,29.94,13,4,0,0.00
2013-4-25,55,43,36,35,23,7,92,50,18,30.26,29.93,13,4,0,0.00
2013-4-26,70,54,37,37,25,18,56,35,17,30.25,30.10,19,8,0,0.00
2013-4-27,66,55,43,46,37,25,98,56,27,30.21,29.98,11,3,0,0.00
2013-4-28,73,57,39,46,32,5,100,52,9,29.99,29.78,8,1,0,0.00
2013-4-29,69,60,50,54,44,36,89,57,35,29.87,29.71,13,5,0,0.00
2013-4-30,86,71,58,57,39,13,94,42,7,29.89,29.67,18,7,0,0.00
2013-5-1,81,66,52,43,34,23,59,33,14,30.07,29.88,10,3,0,0.00
2013-5-2,56,45,37,37,31,22,93,61,35,30.26,30.14,19,8,0,0.00
2013-5-3,47,40,34,47,39,33,100,97,89,30.17,29.95,12,6,0,0.00
2013-5-4,71,57,47,47,40,26,100,60,21,30.03,29.92,11,3,0,0.00
2013-5-5,73,59,44,47,34,15,99,47,13,30.04,29.96,10,2,0,0.00
2013-5-6,75,61,42,45,30,1,100,40,8,30.05,29.95,8,2,0,0.00
2013-5-7,79,66,52,42,22,-5,59,25,5,30.04,29.93,8,1,0,0.00
2013-5-8,84,66,46,52,30,-3,100,39,5,30.01,29.90,7,1,0,0.00
2013-5-9,65,58,47,58,48,36,100,74,37,29.92,29.84,13,3,0,0.00
2013-5-10,52,45,41,47,41,36,100,89,64,29.95,29.86,14,4,0,0.00
2013-5-11,54,47,40,50,30,6,100,58,16,29.99,29.78,27,7,0,0.00
2013-5-12,54,44,35,23,12,-6,52,31,9,30.08,29.99,17,6,0,0.00
2013-5-13,65,49,28,42,18,-9,100,42,6,30.13,29.88,11,2,0,0.00
2013-5-14,89,69,50,37,28,6,48,26,5,29.88,29.55,28,5,0,0.00
2013-5-24,52,50,49,36,34,32,56,54,52,30.31,30.28,8,4,0,0.00
2013-5-25,61,52,45,34,26,17,60,37,19,30.34,30.23,11,2,0,0.00
2013-5-26,67,53,40,44,32,19,77,48,18,30.27,30.10,11,2,0,0.00
2013-5-27,56,52,50,53,46,31,100,82,44,30.12,29.88,13,4,0,0.00
2013-5-28,76,61,51,64,56,49,100,84,45,29.89,29.70,8,2,0,0.00
2013-5-29,81,70,61,66,56,38,100,67,28,29.90,29.76,12,3,0,0.00
2013-5-30,82,71,61,68,58,48,100,68,33,29.89,29.70,17,5,0,0.00
2013-5-31,77,68,62,65,56,45,96,69,37,29.79,29.66,13,4,0,0.00
2013-6-1,78,68,59,66,53,39,100,62,29,29.70,29.61,13,3,0,0.00
2013-6-2,64,54,44,54,37,23,90,55,26,29.99,29.69,19,4,0,0.00
2013-6-3,72,56,38,54,31,9,100,50,12,30.08,29.96,7,1,0,0.00
2013-6-4,72,60,50,46,36,25,83,45,20,30.14,30.02,10,2,0,0.00
2013-6-5,67,56,49,53,47,39,100,74,40,30.10,29.90,8,2,0,0.00
2013-6-6,60,55,50,52,48,42,100,79,58,29.93,29.89,8,2,0,0.00
2013-6-7,74,59,51,55,47,40,98,68,36,29.96,29.89,8,1,0,0.20
2013-6-8,75,62,51,54,47,35,100,63,30,29.97,29.89,9,1,0,0.00
2013-6-9,80,67,56,64,54,46,100,64,41,29.97,29.79,15,4,0,0.04
2013-6-10,81,70,58,67,61,51,100,76,45,29.86,29.76,10,2,0,0.00
2013-6-11,83,72,59,70,62,52,100,74,42,29.90,29.79,9,1,0,0.00
2013-6-12,79,69,61,70,66,61,100,91,69,29.90,29.61,14,4,0,1.14
2013-6-13,77,67,58,63,56,49,100,73,42,30.02,29.75,12,3,0,0.00
2013-6-14,77,66,50,61,53,44,100,67,40,30.12,29.94,8,2,0,0.00
2013-6-15,83,69,56,71,62,49,100,81,54,30.02,29.81,12,3,0,0.51
2013-6-16,84,72,62,70,60,43,100,73,28,29.90,29.84,14,2,0,0.00
2013-6-17,86,73,63,64,56,48,91,57,29,29.94,29.86,17,3,0,0.00
2013-6-18,73,63,55,60,51,43,96,68,39,30.05,29.92,11,4,0,0.00
2013-6-19,81,65,46,57,48,38,100,59,31,30.12,30.01,9,1,0,0.00
2013-6-20,86,72,56,65,54,45,93,56,29,30.11,29.99,11,3,0,0.00
2013-6-21,80,71,64,70,65,59,100,82,52,30.06,29.83,21,3,0,0.79
2013-6-22,80,71,65,73,68,65,100,91,65,30.07,29.88,15,3,0,1.69
2013-6-23,84,70,63,71,67,63,100,90,65,30.02,29.88,11,3,0,0.00
2013-6-24,81,72,67,70,67,60,100,85,53,29.98,29.82,14,2,0,0.00
2013-6-25,86,72,65,76,69,62,100,90,56,29.92,29.79,13,2,0,1.22
2013-6-26,84,74,64,74,68,59,100,84,52,29.80,29.71,17,2,0,2.83
2013-6-27,89,77,68,74,66,58,100,73,39,29.81,29.69,13,3,0,0.00
2013-6-28,78,69,64,68,62,53,100,80,47,29.75,29.63,16,4,0,0.16
2013-6-29,73,66,63,65,62,53,100,89,58,29.85,29.62,14,3,0,0.28
2013-6-30,76,66,55,59,53,46,100,67,39,30.02,29.84,13,3,0,0.00
2013-7-1,78,67,54,60,53,44,100,67,32,30.10,29.99,14,2,0,0.00
2013-7-2,76,65,54,59,50,35,100,63,27,30.10,30.01,10,2,0,0.00
2013-7-3,73,63,52,66,58,48,100,84,58,30.06,29.97,7,1,0,0.00
2013-7-4,82,70,57,68,58,44,100,70,31,30.04,29.96,9,1,0,0.00
2013-7-5,85,74,64,68,62,53,100,70,40,30.03,29.94,11,2,0,0.00
2013-7-6,86,75,64,71,63,54,100,70,39,30.01,29.91,11,2,0,0.00
2013-7-7,89,77,66,74,68,61,100,76,44,29.95,29.89,10,2,0,0.00
2013-7-8,88,78,70,76,72,67,100,83,57,29.95,29.88,14,3,0,0.63
2013-7-9,85,76,68,77,73,68,100,92,67,29.97,29.82,19,3,0,1.57
2013-7-10,78,72,62,76,61,47,100,73,40,29.99,29.84,16,3,0,0.00
2013-7-11,82,69,55,65,54,41,100,66,31,30.11,29.97,9,1,0,0.00
2013-7-12,84,71,55,64,53,41,100,59,25,30.14,30.02,8,1,0,0.00
2013-7-13,84,71,58,62,58,50,100,68,36,30.13,30.03,9,2,0,0.00
2013-7-14,88,76,61,70,63,55,100,69,40,30.20,30.10,9,2,0,0.00
2013-7-15,92,79,66,76,69,58,100,74,39,30.26,30.16,7,1,0,0.00
2013-7-16,92,82,71,77,72,62,100,74,44,30.26,30.18,8,2,0,0.00
2013-7-17,94,83,74,79,73,62,100,74,41,30.26,30.11,10,1,0,0.00
2013-7-18,93,84,74,78,71,64,100,69,42,30.14,29.88,15,4,0,0.00
2013-7-19,91,82,72,73,68,60,80,63,45,29.89,29.74,15,5,0,0.00
2013-7-20,85,73,60,67,60,50,100,67,35,29.92,29.82,9,2,0,0.00
2013-7-21,82,67,59,65,61,53,100,85,48,29.94,29.86,22,2,0,1.26
2013-7-22,85,72,62,75,64,58,100,78,46,29.88,29.65,15,2,0,0.00
2013-7-23,74,68,54,68,56,46,100,69,44,29.95,29.71,15,3,0,0.00
2013-7-24,75,63,51,60,50,39,100,69,34,30.05,29.94,7,1,0,0.00
2013-7-25,80,68,54,69,59,50,100,77,43,30.04,29.91,11,2,0,0.08
2013-7-26,78,68,61,68,62,50,100,84,43,29.92,29.83,11,3,0,0.20
2013-7-27,63,55,49,58,48,40,100,80,52,29.92,29.85,15,4,0,0.00
2013-7-28,67,58,50,55,50,42,100,78,52,29.97,29.83,13,4,0,0.00
2013-7-29,75,63,52,62,54,42,100,74,41,30.12,29.96,8,1,0,0.00
2013-7-30,75,64,54,65,59,53,100,85,50,30.13,30.02,7,1,0,0.00
2013-7-31,81,68,59,67,61,53,100,81,47,30.04,29.91,18,2,0,0.00
2013-8-1,80,68,58,64,55,43,100,69,34,29.97,29.87,13,2,0,0.00
2013-8-2,82,71,63,68,57,45,100,66,34,29.92,29.81,12,2,0,0.00
2013-8-3,79,66,50,62,51,41,100,63,31,30.10,29.91,11,2,0,0.00
2013-8-4,79,64,52,61,52,41,100,71,34,30.19,30.05,8,1,0,0.00
2013-8-5,74,64,56,65,60,55,100,89,58,30.07,29.84,11,2,0,0.04
2013-8-6,86,74,65,74,66,58,100,80,47,29.88,29.77,11,2,0,0.00
2013-8-7,80,72,62,74,64,53,100,79,47,29.93,29.74,14,2,0,0.00
2013-8-8,80,68,59,65,57,48,100,72,41,30.02,29.92,6,1,0,0.00
2013-8-9,81,69,56,63,56,50,99,67,39,30.02,29.92,10,2,0,0.00
2013-8-10,78,64,53,62,54,43,100,72,37,30.12,30.01,9,1,0,0.00
2013-8-11,76,64,53,68,61,52,100,92,67,30.09,29.97,7,1,0,0.12
2013-8-12,81,70,63,68,61,53,100,77,43,29.99,29.89,11,2,0,0.04
2013-8-13,71,61,49,61,49,37,100,68,38,30.12,29.93,11,2,0,0.00
2013-8-14,75,61,46,59,48,37,100,69,33,30.19,30.06,7,1,0,0.00
2013-8-15,79,65,55,61,53,41,100,68,30,30.11,30.03,6,0,0,0.00
2013-8-16,83,68,52,63,52,39,100,65,26,30.15,30.06,8,1,0,0.00
2013-8-17,82,67,52,63,53,41,100,68,29,30.22,30.10,8,1,0,0.00
2013-8-18,82,68,51,62,53,40,100,65,27,30.18,30.03,8,1,0,0.00
2013-8-19,84,69,55,66,58,48,100,73,33,30.06,29.96,10,1,0,0.00
2013-8-20,87,75,64,68,62,54,100,69,37,30.04,29.94,12,2,0,0.00
2013-8-21,90,79,68,72,66,61,98,67,41,29.99,29.89,17,4,0,0.00
2013-8-22,80,71,66,73,69,60,100,93,69,30.11,29.94,19,2,0,1.77
2013-8-23,82,69,55,64,56,47,100,68,33,30.16,30.06,10,1,0,0.00
2013-8-24,84,70,53,70,61,53,100,76,45,30.22,30.10,10,2,0,0.00
2013-8-25,89,78,69,69,65,60,93,66,45,30.15,30.03,14,4,0,0.00
2013-8-26,91,80,72,76,68,56,86,69,42,30.10,29.92,11,3,0,0.00
2013-8-27,93,83,75,77,71,63,94,69,41,29.93,29.81,14,3,0,0.00
2013-8-28,83,75,68,78,71,63,100,88,55,30.01,29.83,7,2,0,0.00
2013-8-29,86,75,62,72,65,54,100,74,37,30.06,29.92,10,1,0,0.00
2013-8-30,92,78,68,76,70,66,100,79,48,29.92,29.77,10,3,0,0.00
2013-8-31,80,71,62,69,64,57,100,80,52,29.88,29.77,6,1,0,0.00
2013-9-1,85,71,61,72,63,54,100,80,38,29.84,29.72,10,2,0,0.00
2013-9-2,72,63,50,63,55,45,100,79,41,29.97,29.82,11,2,0,0.00
2013-9-3,76,60,46,61,49,38,100,74,32,30.06,29.95,9,1,0,0.00
2013-9-4,84,68,53,70,58,50,100,75,36,30.08,29.97,8,1,0,0.00
2013-9-5,78,66,57,64,56,48,100,73,41,30.23,30.07,9,3,0,0.00
2013-9-6,86,70,50,68,56,47,100,67,37,30.17,29.92,10,2,0,0.00
2013-9-7,89,76,68,75,65,57,100,70,41,29.94,29.87,9,2,0,0.00
2013-9-8,71,67,62,70,64,60,100,90,81,30.03,29.91,10,3,0,0.00
2013-9-9,91,79,62,72,67,62,100,70,48,29.92,29.77,10,3,0,0.00
2013-9-10,94,83,73,67,60,52,71,48,26,29.91,29.81,13,3,0,0.00
2013-9-11,82,72,65,71,65,56,100,81,45,30.05,29.91,12,1,0,0.35
2013-9-12,74,65,55,66,52,43,100,68,37,30.10,29.92,15,4,0,0.00
2013-9-13,66,54,43,50,41,30,100,67,30,30.19,30.08,8,2,0,0.00
2013-9-14,73,57,40,54,42,33,100,64,28,30.13,29.92,7,1,0,0.00
2013-9-15,62,56,51,59,54,43,100,94,55,30.18,29.92,10,2,0,0.79
2013-9-16,65,53,39,53,43,35,100,72,39,30.36,30.18,11,3,0,0.00
2013-9-17,70,56,39,58,48,39,100,79,40,30.29,30.03,9,2,0,0.04
2013-9-18,78,66,58,69,60,54,100,84,53,30.04,29.87,10,3,0,0.16
2013-9-19,86,72,66,73,68,57,100,91,51,29.88,29.71,13,3,0,2.13
2013-9-20,73,64,55,67,59,47,100,84,56,29.83,29.71,11,3,0,0.04
2013-9-21,60,53,44,55,47,39,100,83,52,29.91,29.82,12,3,0,0.00
2013-9-22,64,52,40,48,42,34,100,73,37,30.04,29.91,6,1,0,0.00
2013-9-23,67,54,42,51,46,41,100,76,44,30.08,29.97,7,2,0,0.00
2013-9-24,71,57,43,55,47,40,100,74,36,30.01,29.91,8,1,0,0.00
2013-9-25,72,57,45,59,49,42,100,79,39,29.97,29.90,6,2,0,0.00
2013-9-26,76,59,43,60,48,43,100,73,34,30.04,29.94,8,2,0,0.00
2013-9-27,80,64,47,59,49,40,100,66,25,30.10,29.97,10,2,0,0.00
2013-9-28,79,66,53,64,51,46,84,60,40,29.99,29.82,15,5,0,0.00
2013-9-29,71,59,45,58,42,29,100,59,24,30.04,29.92,4,0,0,0.00
2013-9-30,72,58,43,50,44,37,100,66,29,29.95,29.80,9,2,0,0.00
2013-10-1,79,66,54,64,56,49,100,74,42,29.93,29.82,11,3,0,0.00
2013-10-2,76,62,43,71,42,23,100,60,16,30.08,29.92,7,1,0,0.00
2013-10-3,76,66,56,70,60,42,100,82,52,29.93,29.81,8,2,0,0.00
2013-10-4,67,64,60,66,64,60,100,100,95,29.97,29.85,9,2,0,0.20
2013-10-5,74,65,57,71,64,46,100,98,68,29.91,29.72,8,2,0,0.24
2013-10-6,61,51,40,53,41,30,100,73,36,29.77,29.66,9,2,0,0.12
2013-10-7,67,52,41,50,44,37,100,78,35,30.03,29.70,15,3,0,0.04
2013-10-8,74,57,39,55,43,38,100,67,28,30.10,30.01,12,2,0,0.00
2013-10-9,73,58,47,52,45,34,100,68,27,30.17,30.06,9,1,0,0.00
2013-10-10,74,56,40,62,45,39,100,74,30,30.13,29.98,8,1,0,0.00
2013-10-11,74,61,48,59,52,48,100,75,44,30.00,29.89,11,3,0,0.00
2013-10-12,70,60,43,63,50,36,100,73,32,30.10,29.87,12,3,0,0.12
2013-10-13,61,48,36,48,37,28,100,74,32,30.36,30.10,12,2,0,0.00
2013-10-14,61,48,31,50,39,31,100,75,41,30.37,30.05,10,2,0,0.00
2013-10-15,60,53,46,59,49,42,100,88,66,30.06,29.71,12,4,0,0.24
2013-10-16,54,49,46,51,47,44,100,93,78,29.90,29.76,9,3,0,0.00
2013-10-17,54,46,38,46,42,33,100,87,45,29.90,29.79,7,0,0,0.12
2013-10-18,49,43,37,45,39,35,100,86,65,29.90,29.77,11,2,0,0.00
2013-10-19,53,41,31,42,36,26,100,86,40,29.89,29.71,9,2,0,0.04
2013-10-20,50,41,28,48,39,28,100,94,62,29.85,29.67,9,2,0,0.16
2013-10-21,47,38,29,45,29,22,98,71,52,29.90,29.73,10,4,0,0.00
2013-10-22,46,35,25,30,26,22,100,71,44,29.93,29.88,7,2,0,0.00
2013-10-23,44,34,25,32,26,17,100,76,37,29.97,29.90,10,2,0,0.00
2013-10-24,42,35,27,30,25,21,99,70,45,30.23,29.96,11,3,0,0.00
2013-10-25,51,40,27,33,26,21,100,63,37,30.31,29.88,16,4,0,0.00
2013-10-26,50,45,38,36,28,24,75,52,38,30.02,29.76,19,6,0,0.00
2013-10-27,54,41,26,37,29,24,100,66,33,30.02,29.87,11,2,0,0.00
2013-10-28,42,39,34,35,30,26,95,69,56,30.36,29.98,11,5,0,0.00
2013-10-29,53,43,36,44,35,27,100,75,50,30.35,30.09,8,3,0,0.00
2013-10-30,56,50,44,56,50,43,100,99,90,30.08,29.73,11,2,0,0.00
2013-10-31,62,55,43,62,55,41,100,100,92,29.74,29.27,12,3,0,0.63
2013-11-1,46,42,38,44,41,38,100,95,85,29.75,29.33,12,4,0,0.04
2013-11-2,45,38,30,40,36,29,100,92,65,30.10,29.74,9,2,0,0.00
2013-11-3,50,37,24,42,31,24,100,81,44,30.25,30.10,11,3,0,0.00
2013-11-4,52,47,41,48,38,34,96,71,55,30.16,29.98,17,6,0,0.00
2013-11-5,54,50,46,52,48,43,100,96,69,30.21,29.85,16,3,0,0.47
2013-11-6,54,42,30,54,38,23,100,87,58,30.11,29.68,16,6,0,0.35
2013-11-7,40,33,27,32,28,26,100,83,60,30.19,30.11,11,2,0,0.00
2013-11-8,46,35,22,36,28,22,100,78,51,30.25,29.77,18,5,0,0.00
2013-11-9,52,46,36,39,33,22,78,62,48,30.05,29.74,18,7,0,0.00
2013-11-10,48,41,36,30,26,20,71,56,39,30.29,30.05,12,5,0,0.00
2013-11-11,43,31,21,35,24,14,100,74,59,30.51,30.00,16,5,0,0.04
2013-11-12,29,22,16,16,14,9,90,72,47,30.68,30.50,11,4,0,0.00
2013-11-13,42,30,18,18,15,9,89,58,31,30.50,29.99,15,6,0,0.00
2013-11-14,47,39,32,33,24,17,73,54,40,30.00,29.86,14,5,0,0.00
2013-11-15,55,43,31,37,32,26,100,68,42,29.91,29.86,8,3,0,0.00
2013-11-16,57,48,36,57,47,35,100,99,95,29.87,29.47,19,9,0,0.08
2013-11-17,57,49,38,57,47,30,100,94,72,29.68,29.17,17,5,0,1.18
2013-11-18,38,33,24,32,24,20,90,72,54,30.21,29.67,21,7,0,0.00
2013-11-19,39,30,17,34,24,17,100,79,48,30.33,30.17,11,3,0,0.00
2013-11-20,39,35,32,36,30,24,100,82,57,30.19,30.04,18,8,0,0.00
2013-11-21,42,39,36,40,37,36,100,95,82,30.22,30.05,9,2,0,0.00
2013-11-22,37,30,21,36,24,15,100,79,52,30.44,30.20,11,4,0,0.00
2013-11-23,24,16,9,17,6,1,90,65,47,30.68,30.36,18,7,0,0.00
2013-11-24,27,17,6,11,5,-3,100,63,28,30.66,30.21,16,5,0,0.00
2013-11-25,30,26,21,28,20,7,100,81,47,30.21,29.98,16,6,0,0.00
2013-11-26,31,25,12,28,16,3,91,69,51,30.20,29.97,17,6,0,0.00
2013-11-27,25,17,9,14,9,4,91,70,48,30.26,30.15,13,4,0,0.00
2013-11-28,29,24,19,16,13,11,84,65,54,30.48,30.11,11,4,0,0.00
2013-11-29,31,22,7,22,16,6,100,80,51,30.59,30.29,9,3,0,0.00
2013-11-30,43,33,26,34,27,22,100,78,53,30.30,30.00,11,3,0,0.00
2013-12-1,40,32,24,30,27,21,100,82,48,30.13,29.95,7,1,0,0.00
2013-12-2,40,32,20,34,29,20,100,90,68,29.95,29.74,9,3,0,0.00
2013-12-3,38,36,33,38,36,33,100,100,100,29.77,29.69,10,4,0,0.24
2013-12-4,49,40,33,49,39,29,100,99,83,29.77,29.47,15,4,0,0.12
2013-12-5,33,20,13,30,13,6,91,73,56,30.26,29.64,15,7,0,0.00
2013-12-6,16,10,6,9,4,0,89,76,55,30.53,30.23,12,5,0,0.00
2013-12-7,15,6,-1,6,0,-4,100,79,50,30.68,30.52,9,3,0,0.00
2013-12-8,19,14,7,19,9,-2,100,83,62,30.58,29.94,9,4,0,0.00
2013-12-9,18,8,-6,15,4,-6,100,83,56,30.18,29.91,16,4,0,0.00
2013-12-10,18,8,-6,8,2,-7,100,78,58,30.24,29.90,16,5,0,0.00
2013-12-11,13,5,-5,13,-1,-9,100,78,51,30.53,30.22,13,4,0,0.00
2013-12-12,18,9,-6,12,2,-7,100,74,49,30.49,30.15,11,4,0,0.00
2013-12-13,24,17,11,18,13,10,100,85,62,30.19,30.13,13,4,0,0.00
2013-12-14,22,20,17,19,18,14,100,94,85,30.16,29.92,13,5,0,0.00
2013-12-15,19,10,2,17,1,-7,93,69,54,30.14,29.91,14,6,0,0.00
2013-12-16,14,6,-6,14,2,-7,100,84,56,30.14,29.98,7,2,0,0.00
2013-12-17,34,24,14,24,18,12,100,79,49,30.05,29.90,14,5,0,0.00
2013-12-18,34,23,9,28,16,9,100,77,48,30.10,29.78,16,5,0,0.00
2013-12-19,32,26,19,30,24,17,100,92,67,29.98,29.80,13,4,0,0.00
2013-12-20,23,21,20,23,21,20,100,100,95,29.90,29.84,12,5,0,0.00
2013-12-21,25,22,22,25,22,22,100,100,100,29.90,29.82,5,1,0,0.00
2013-12-22,24,21,16,23,20,16,100,96,83,30.11,29.87,9,2,0,0.00
2013-12-23,19,9,-3,19,6,-4,100,88,60,30.43,30.10,9,3,0,0.00
2013-12-24,12,1,-11,9,-2,-12,100,87,45,30.55,30.27,11,2,0,0.00
2013-12-25,22,19,10,22,17,9,100,95,76,30.27,30.05,14,4,0,0.00
2013-12-26,25,19,11,24,16,10,100,89,69,30.22,30.07,10,2,0,0.00
2013-12-27,36,26,10,33,22,10,100,87,62,30.23,29.98,12,3,0,0.04
2013-12-28,42,35,22,33,29,21,100,81,56,30.03,29.77,13,4,0,0.04
2013-12-29,38,19,-4,32,15,-10,100,82,65,30.26,29.74,18,8,0,0.00
2013-12-30,4,-4,-14,0,-10,-19,100,76,42,30.36,30.20,5,1,0,0.00
2013-12-31,7,4,-5,4,-1,-7,100,82,65,30.36,30.23,9,2,0,0.00
2014-1-1,3,0,-2,-5,-7,-9,77,72,67,30.39,30.33,12,6,0,0.00
2014-1-2,7,6,5,2,0,-2,88,79,70,30.36,30.30,11,7,0,0.00